Location: Lugrin
(46.4033°N, 6.6674°E)
Time: 09:16:42
(UTC+00:00)

N. Korean satellite - Pass Details

Date: 04 December 2020
Orbit: 453 x 502 km, 97.2° (Epoch: 16 January)

Event Time Altitude Azimuth Distance (km) Brightness Sun altitude
Rises 16:33:09 0° 182° (S) 2,461 10.5 -7.8°
Reaches altitude 10° 16:35:14 10° 189° (S) 1,598 9.7 -8.1°
Maximum altitude 16:38:30 41° 262° (W) 682 8.0 -8.6°
Drops below altitude 10° 16:41:50 10° 334° (NNW) 1,633 9.3 -9.2°
Sets 16:44:00 0° 342° (NNW) 2,524 10.2 -9.5°
